START_TIME,STEP,MOV.,H8,t_acc.,H43,t_acc.,M25,t_acc.,H9,t_acc.
1979-07-18 03:00:29.450 ,1,0,0.,12.0,0.,12.0,0.,12.0,0.,12.0
1979-07-18 03:00:41.450 ,1,0,0.,12.0,0.,12.0,0.,12.0,0.,12.0
1979-07-18 03:00:53.450 ,2,0,1.,12.0,0.,12.0,0.,12.0,0.,12.0
1979-07-18 03:01:05.450 ,2,0,0.,12.0,0.,12.0,0.,12.0,0.,12.0
1979-07-18 03:01:17.450 ,2,0,0.,12.0,0.,12.0,0.,12.0,0.,12.0
1979-07-18 03:01:29.450 ,2,0,0.,12.0,0.,12.0,0.,12.0,0.,12.0
1979-07-18 03:01:41.450 ,3,0,0.,12.0,0.,12.0,0.,12.0,0.,12.0
1979-07-18 03:01:53.450 ,3,0,0.,12.0,0.,12.0,0.,12.0,0.,12.0
1979-07-18 03:02:05.450 ,3,0,0.,12.0,0.,12.0,0.,12.0,0.,12.0
1979-07-18 03:02:17.450 ,3,0,0.,12.0,0.,12.0,0.,12.0,0.,12.0
1979-07-18 03:02:29.450 ,4,0,0.,12.0,0.,12.0,0.,12.0,0.,12.0
1979-07-18 03:02:41.450 ,4,0,0.,12.0,0.,12.0,0.,12.0,0.,12.0
1979-07-18 03:02:53.450 ,4,0,0.,12.0,0.,12.0,0.,12.0,0.,12.0
1979-07-18 03:03:05.450 ,4,0,0.,12.0,0.,12.0,0.,12.0,0.,12.0
1979-07-18 03:03:17.450 ,5,0,0.,12.0,0.,12.0,0.,12.0,0.,12.0
1979-07-18 03:03:29.450 ,5,0,0.,12.0,0.,12.0,0.,12.0,0.,12.0
1979-07-18 03:03:41.450 ,5,0,0.,12.0,0.,12.0,0.,12.0,0.,12.0
1979-07-18 03:03:53.450 ,5,0,0.,12.0,0.,12.0,0.,12.0,0.,12.0
1979-07-18 03:04:05.450 ,6,0,0.,12.0,0.,12.0,0.,12.0,0.,12.0
1979-07-18 03:04:17.450 ,6,0,0.,12.0,0.,12.0,0.,12.0,0.,12.0
1979-07-18 03:04:29.450 ,6,0,0.,12.0,0.,12.0,0.,12.0,0.,12.0
1979-07-18 03:04:41.450 ,6,0,0.,12.0,0.,12.0,0.,12.0,0.,12.0
1979-07-18 03:04:53.450 ,7,0,0.,12.0,0.,12.0,0.,12.0,0.,12.0
1979-07-18 03:05:05.450 ,7,0,0.,12.0,0.,12.0,0.,12.0,0.,12.0
1979-07-18 03:05:17.450 ,7,0,0.,12.0,0.,12.0,0.,12.0,0.,12.0
1979-07-18 03:05:29.450 ,7,0,0.,12.0,0.,12.0,0.,12.0,0.,12.0
1979-07-18 03:05:41.450 ,7,0,0.,12.0,0.,12.0,0.,12.0,0.,12.0
1979-07-18 03:05:53.450 ,7,0,0.,12.0,0.,12.0,0.,12.0,0.,12.0
1979-07-18 03:06:05.450 ,7,0,0.,12.0,0.,12.0,0.,12.0,0.,12.0
1979-07-18 03:06:17.450 ,7,0,0.,12.0,0.,12.0,0.,12.0,0.,12.0
1979-07-18 03:06:29.450 ,6,0,0.,12.0,0.,12.0,0.,12.0,0.,12.0
1979-07-18 03:06:41.450 ,6,0,0.,12.0,0.,12.0,0.,12.0,0.,12.0
1979-07-18 03:06:53.450 ,6,0,0.,12.0,0.,12.0,0.,12.0,0.,12.0
1979-07-18 03:07:05.450 ,6,0,0.,12.0,0.,12.0,0.,12.0,0.,12.0
1979-07-18 03:07:17.450 ,5,0,0.,12.0,0.,12.0,0.,12.0,0.,12.0
1979-07-18 03:07:29.450 ,5,0,0.,12.0,0.,12.0,0.,12.0,0.,12.0
1979-07-18 03:07:41.450 ,5,0,0.,12.0,0.,12.0,0.,12.0,0.,12.0
1979-07-18 03:07:53.450 ,5,0,0.,12.0,0.,12.0,0.,12.0,0.,12.0
1979-07-18 03:08:05.450 ,4,0,0.,12.0,0.,12.0,0.,12.0,0.,12.0
1979-07-18 03:08:17.450 ,4,0,0.,12.0,0.,12.0,0.,12.0,0.,12.0
1979-07-18 03:08:29.450 ,4,0,0.,12.0,0.,12.0,0.,12.0,0.,12.0
1979-07-18 03:08:41.450 ,4,0,0.,12.0,0.,12.0,0.,12.0,0.,12.0
1979-07-18 03:08:53.450 ,3,0,0.,12.0,0.,12.0,0.,12.0,0.,12.0
1979-07-18 03:09:05.450 ,3,0,0.,12.0,0.,12.0,0.,12.0,0.,12.0
1979-07-18 03:09:17.450 ,3,0,0.,12.0,0.,12.0,0.,12.0,0.,12.0
1979-07-18 03:09:29.450 ,3,0,0.,12.0,0.,12.0,0.,12.0,0.,12.0
1979-07-18 03:09:41.450 ,2,0,1.,12.0,0.,12.0,0.,12.0,0.,12.0
1979-07-18 03:09:53.450 ,2,0,0.,12.0,0.,12.0,0.,12.0,0.,12.0
1979-07-18 03:10:05.450 ,2,0,0.,12.0,0.,12.0,0.,12.0,0.,12.0
1979-07-18 03:10:17.450 ,2,0,0.,12.0,0.,12.0,0.,12.0,0.,12.0
1979-07-18 03:10:29.450 ,1,0,0.,12.0,0.,12.0,0.,12.0,0.,12.0
1979-07-18 03:10:41.450 ,1,0,1.,12.0,0.,12.0,0.,12.0,0.,12.0
1979-07-18 03:10:53.450 ,1,0,0.,12.0,0.,12.0,0.,12.0,0.,12.0
1979-07-18 03:11:05.450 ,1,0,0.,12.0,0.,12.0,0.,12.0,0.,12.0
1979-07-18 03:11:17.450 ,0,0,0.,12.0,0.,12.0,0.,12.0,0.,12.0
1979-07-18 03:11:29.450 ,0,0,0.,12.0,0.,12.0,0.,12.0,0.,12.0
1979-07-18 03:11:41.450 ,0,0,0.,12.0,0.,12.0,0.,12.0,0.,12.0
1979-07-18 03:11:53.450 ,0,0,0.,12.0,0.,12.0,0.,12.0,0.,12.0
1979-07-18 03:12:05.450 ,0,0,0.,12.0,0.,12.0,0.,12.0,0.,12.0
1979-07-18 03:12:17.450 ,0,0,0.,12.0,0.,12.0,0.,12.0,0.,12.0
1979-07-18 03:12:29.450 ,0,0,0.,12.0,0.,12.0,0.,12.0,0.,12.0
1979-07-18 03:12:41.450 ,0,0,0.,12.0,0.,12.0,0.,12.0,0.,12.0
1979-07-18 03:12:53.450 ,1,0,0.,12.0,0.,12.0,0.,12.0,0.,12.0
1979-07-18 03:13:05.450 ,1,0,0.,12.0,0.,12.0,0.,12.0,0.,12.0
1979-07-18 03:13:17.450 ,1,0,0.,12.0,0.,12.0,0.,12.0,0.,12.0
1979-07-18 03:13:29.450 ,1,0,0.,12.0,0.,12.0,0.,12.0,0.,12.0
1979-07-18 03:13:41.450 ,2,0,0.,12.0,0.,12.0,0.,12.0,0.,12.0
1979-07-18 03:13:53.450 ,2,0,0.,12.0,0.,12.0,0.,12.0,0.,12.0
1979-07-18 03:14:05.450 ,2,0,0.,12.0,0.,12.0,0.,12.0,0.,12.0
1979-07-18 03:14:17.450 ,2,0,1.,12.0,0.,12.0,0.,12.0,0.,12.0
1979-07-18 03:14:29.450 ,3,0,0.,12.0,0.,12.0,0.,12.0,0.,12.0
1979-07-18 03:14:41.450 ,3,0,0.,12.0,0.,12.0,0.,12.0,0.,12.0
1979-07-18 03:14:53.450 ,3,0,0.,12.0,0.,12.0,0.,12.0,0.,12.0
1979-07-18 03:15:05.450 ,3,0,0.,12.0,0.,12.0,0.,12.0,0.,12.0
1979-07-18 03:15:17.450 ,4,0,0.,12.0,0.,12.0,0.,12.0,0.,12.0
1979-07-18 03:15:29.450 ,4,0,0.,12.0,0.,12.0,0.,12.0,0.,12.0
1979-07-18 03:15:41.450 ,4,0,0.,12.0,0.,12.0,0.,12.0,0.,12.0
1979-07-18 03:15:53.450 ,4,0,0.,12.0,0.,12.0,0.,12.0,0.,12.0
1979-07-18 03:16:05.450 ,5,0,0.,12.0,0.,12.0,0.,12.0,0.,12.0
1979-07-18 03:16:17.450 ,5,0,0.,12.0,0.,12.0,0.,12.0,0.,12.0
1979-07-18 03:16:29.450 ,5,0,1.,12.0,0.,12.0,0.,12.0,0.,12.0
1979-07-18 03:16:41.450 ,5,0,0.,12.0,0.,12.0,0.,12.0,0.,12.0
1979-07-18 03:16:53.450 ,6,0,0.,12.0,0.,12.0,0.,12.0,0.,12.0
1979-07-18 03:17:05.450 ,6,0,0.,12.0,0.,12.0,0.,12.0,0.,12.0
1979-07-18 03:17:17.450 ,6,0,0.,12.0,0.,12.0,0.,12.0,0.,12.0
1979-07-18 03:17:29.450 ,6,0,0.,12.0,0.,12.0,0.,12.0,0.,12.0
1979-07-18 03:17:41.450 ,7,0,0.,12.0,0.,12.0,0.,12.0,0.,12.0
1979-07-18 03:17:53.450 ,7,0,0.,12.0,0.,12.0,0.,12.0,0.,12.0
1979-07-18 03:18:05.450 ,7,0,0.,12.0,0.,12.0,0.,12.0,0.,12.0
1979-07-18 03:18:17.450 ,7,0,0.,12.0,0.,12.0,0.,12.0,0.,12.0
1979-07-18 03:18:05.450 ,7,0,0.,12.0,0.,12.0,0.,12.0,0.,12.0
1979-07-18 03:18:17.450 ,7,0,0.,12.0,0.,12.0,0.,12.0,0.,12.0
1979-07-18 03:18:29.450 ,7,0,0.,12.0,0.,12.0,0.,12.0,0.,12.0
1979-07-18 03:18:41.450 ,7,0,0.,12.0,0.,12.0,0.,12.0,0.,12.0
1979-07-18 03:18:53.450 ,7,0,0.,12.0,0.,12.0,0.,12.0,0.,12.0
1979-07-18 03:19:05.450 ,7,0,0.,12.0,0.,12.0,0.,12.0,0.,12.0
1979-07-18 03:19:17.450 ,6,0,0.,12.0,0.,12.0,0.,12.0,0.,12.0
1979-07-18 03:19:29.450 ,6,0,0.,12.0,0.,12.0,0.,12.0,0.,12.0
1979-07-18 03:19:41.450 ,6,0,0.,12.0,0.,12.0,0.,12.0,0.,12.0
1979-07-18 03:19:53.450 ,6,0,0.,12.0,0.,12.0,0.,12.0,0.,12.0
1979-07-18 03:20:05.450 ,5,0,0.,12.0,0.,12.0,0.,12.0,0.,12.0
1979-07-18 03:20:17.450 ,5,0,0.,12.0,0.,12.0,0.,12.0,0.,12.0
1979-07-18 03:20:29.450 ,5,0,0.,12.0,0.,12.0,0.,12.0,0.,12.0
1979-07-18 03:20:41.450 ,5,0,0.,12.0,0.,12.0,0.,12.0,0.,12.0
1979-07-18 03:20:53.450 ,4,0,0.,12.0,0.,12.0,0.,12.0,0.,12.0
1979-07-18 03:21:05.450 ,4,0,0.,12.0,0.,12.0,0.,12.0,0.,12.0
1979-07-18 03:21:17.450 ,4,0,0.,12.0,0.,12.0,0.,12.0,0.,12.0
1979-07-18 03:21:29.450 ,4,0,0.,12.0,0.,12.0,0.,12.0,0.,12.0
1979-07-18 03:21:41.450 ,3,0,0.,12.0,0.,12.0,0.,12.0,0.,12.0
1979-07-18 03:21:53.450 ,3,0,0.,12.0,0.,12.0,0.,12.0,0.,12.0
1979-07-18 03:22:05.450 ,3,0,0.,12.0,0.,12.0,0.,12.0,0.,12.0
1979-07-18 03:22:17.450 ,3,0,0.,12.0,0.,12.0,0.,12.0,0.,12.0
1979-07-18 03:22:29.450 ,2,0,0.,12.0,0.,12.0,0.,12.0,0.,12.0
1979-07-18 03:22:41.450 ,2,0,1.,12.0,0.,12.0,0.,12.0,0.,12.0
1979-07-18 03:22:53.450 ,2,0,0.,12.0,0.,12.0,0.,12.0,0.,12.0
1979-07-18 03:23:05.450 ,2,0,0.,12.0,0.,12.0,0.,12.0,0.,12.0
1979-07-18 03:23:17.450 ,1,0,0.,12.0,0.,12.0,0.,12.0,0.,12.0
1979-07-18 03:23:29.450 ,1,0,0.,12.0,0.,12.0,0.,12.0,0.,12.0
1979-07-18 03:23:41.450 ,1,0,0.,12.0,0.,12.0,0.,12.0,0.,12.0
1979-07-18 03:23:53.450 ,1,0,0.,12.0,0.,12.0,0.,12.0,0.,12.0
1979-07-18 03:24:05.450 ,0,0,0.,12.0,0.,12.0,0.,12.0,0.,12.0
1979-07-18 03:24:17.450 ,0,0,0.,12.0,0.,12.0,0.,12.0,0.,12.0
1979-07-18 03:24:29.450 ,0,0,0.,12.0,0.,12.0,0.,12.0,0.,12.0
1979-07-18 03:24:41.450 ,0,0,0.,12.0,0.,12.0,0.,12.0,0.,12.0
1979-07-18 03:24:53.450 ,0,0,0.,12.0,0.,12.0,0.,12.0,0.,12.0
1979-07-18 03:25:05.450 ,0,0,0.,12.0,0.,12.0,0.,12.0,0.,12.0
1979-07-18 03:25:17.450 ,0,0,0.,12.0,0.,12.0,0.,12.0,0.,12.0
1979-07-18 03:25:29.450 ,0,0,0.,12.0,0.,12.0,0.,12.0,0.,12.0
1979-07-18 03:25:41.450 ,1,0,0.,12.0,0.,12.0,0.,12.0,0.,12.0
1979-07-18 03:25:53.450 ,1,0,0.,12.0,0.,12.0,0.,12.0,0.,12.0
1979-07-18 03:26:05.450 ,1,0,0.,12.0,0.,12.0,0.,12.0,0.,12.0
1979-07-18 03:26:17.450 ,1,0,0.,12.0,0.,12.0,0.,12.0,0.,12.0
1979-07-18 03:26:29.450 ,2,0,0.,12.0,0.,12.0,0.,12.0,0.,12.0
1979-07-18 03:26:41.450 ,2,0,0.,12.0,0.,12.0,0.,12.0,0.,12.0
1979-07-18 03:26:53.450 ,2,0,0.,12.0,0.,12.0,0.,12.0,0.,12.0
1979-07-18 03:27:05.450 ,2,0,0.,12.0,0.,12.0,0.,12.0,0.,12.0
1979-07-18 03:27:17.450 ,3,0,0.,12.0,0.,12.0,0.,12.0,0.,12.0
1979-07-18 03:27:29.450 ,3,0,0.,12.0,0.,12.0,0.,12.0,0.,12.0
1979-07-18 03:27:41.450 ,3,0,0.,12.0,0.,12.0,0.,12.0,0.,12.0
1979-07-18 03:27:53.450 ,3,0,0.,12.0,0.,12.0,0.,12.0,0.,12.0
1979-07-18 03:28:05.450 ,4,0,0.,12.0,0.,12.0,0.,12.0,0.,12.0
1979-07-18 03:28:17.450 ,4,0,0.,12.0,0.,12.0,0.,12.0,0.,12.0
1979-07-18 03:28:29.450 ,4,0,0.,12.0,0.,12.0,0.,12.0,0.,12.0
1979-07-18 03:28:41.450 ,4,0,0.,12.0,0.,12.0,0.,12.0,0.,12.0
1979-07-18 03:28:53.450 ,5,0,0.,12.0,0.,12.0,0.,12.0,0.,12.0
1979-07-18 03:29:05.450 ,5,0,0.,12.0,0.,12.0,0.,12.0,0.,12.0
1979-07-18 03:29:17.450 ,5,0,0.,12.0,0.,12.0,0.,12.0,0.,12.0
1979-07-18 03:29:29.450 ,5,0,0.,12.0,0.,12.0,0.,12.0,0.,12.0
1979-07-18 03:29:41.450 ,6,0,0.,12.0,0.,12.0,0.,12.0,0.,12.0
1979-07-18 03:29:53.450 ,6,0,0.,12.0,0.,12.0,0.,12.0,0.,12.0
1979-07-18 03:30:05.450 ,6,0,0.,12.0,0.,12.0,0.,12.0,0.,12.0
1979-07-18 03:30:17.450 ,6,0,0.,12.0,0.,12.0,0.,12.0,0.,12.0
1979-07-18 03:30:29.450 ,7,0,0.,12.0,0.,12.0,0.,12.0,0.,12.0
1979-07-18 03:30:41.450 ,7,0,0.,12.0,0.,12.0,0.,12.0,0.,12.0
1979-07-18 03:30:53.450 ,7,0,0.,12.0,0.,12.0,0.,12.0,0.,12.0
1979-07-18 03:31:05.450 ,7,0,0.,12.0,0.,12.0,0.,12.0,0.,12.0
1979-07-18 03:31:17.450 ,3,1,0.,12.0,0.,12.0,0.,12.0,0.,12.0
1979-07-18 03:31:29.450 ,3,1,0.,12.0,0.,12.0,0.,12.0,0.,12.0
1979-07-18 03:31:41.450 ,0,1,0.,12.0,0.,12.0,0.,12.0,0.,12.0
1979-07-18 03:31:53.450 ,0,1,0.,12.0,0.,12.0,0.,12.0,0.,12.0
1979-07-18 03:32:05.450 ,4,1,0.,12.0,0.,12.0,0.,12.0,0.,12.0
1979-07-18 03:32:17.450 ,4,1,0.,12.0,0.,12.0,0.,12.0,0.,12.0
1979-07-18 03:32:29.450 ,7,1,0.,12.0,0.,12.0,0.,12.0,0.,12.0
1979-07-18 03:32:41.450 ,7,1,0.,12.0,0.,12.0,0.,12.0,0.,12.0
1979-07-18 03:32:53.450 ,3,1,0.,12.0,0.,12.0,0.,12.0,0.,12.0
1979-07-18 03:33:05.450 ,3,1,0.,12.0,0.,12.0,0.,12.0,0.,12.0
1979-07-18 03:33:17.450 ,0,1,0.,12.0,0.,12.0,0.,12.0,0.,12.0
1979-07-18 03:33:29.450 ,0,1,0.,12.0,0.,12.0,0.,12.0,0.,12.0
1979-07-18 03:33:41.450 ,4,1,0.,12.0,0.,12.0,0.,12.0,0.,12.0
1979-07-18 03:33:53.450 ,4,1,0.,12.0,0.,12.0,0.,12.0,0.,12.0
1979-07-18 03:34:05.450 ,7,1,0.,12.0,0.,12.0,0.,12.0,0.,12.0
1979-07-18 03:34:17.450 ,7,1,0.,12.0,0.,12.0,0.,12.0,0.,12.0
1979-07-18 03:34:29.450 ,3,1,0.,12.0,0.,12.0,0.,12.0,0.,12.0
1979-07-18 03:34:41.450 ,3,1,0.,12.0,0.,12.0,0.,12.0,0.,12.0
1979-07-18 03:34:53.450 ,0,1,0.,12.0,0.,12.0,0.,12.0,0.,12.0
1979-07-18 03:35:05.450 ,0,1,0.,12.0,0.,12.0,0.,12.0,0.,12.0
1979-07-18 03:35:17.450 ,4,1,0.,12.0,0.,12.0,0.,12.0,0.,12.0
1979-07-18 03:35:29.450 ,4,1,0.,12.0,0.,12.0,0.,12.0,0.,12.0
1979-07-18 03:35:41.450 ,7,1,0.,12.0,0.,12.0,0.,12.0,0.,12.0
1979-07-18 03:35:53.450 ,7,1,0.,12.0,0.,12.0,0.,12.0,0.,12.0
1979-07-18 03:36:05.450 ,3,1,0.,12.0,0.,12.0,0.,12.0,0.,12.0
1979-07-18 03:36:17.450 ,3,1,0.,12.0,0.,12.0,0.,12.0,0.,12.0
1979-07-18 03:36:29.450 ,0,1,0.,12.0,0.,12.0,0.,12.0,0.,12.0
1979-07-18 03:36:41.450 ,0,1,0.,12.0,0.,12.0,0.,12.0,0.,12.0
1979-07-18 03:36:53.450 ,4,1,0.,12.0,0.,12.0,0.,12.0,0.,12.0
1979-07-18 03:37:05.450 ,4,1,0.,12.0,0.,12.0,0.,12.0,0.,12.0
1979-07-18 03:37:17.450 ,7,1,0.,12.0,0.,12.0,0.,12.0,0.,12.0
1979-07-18 03:37:29.450 ,7,1,0.,12.0,0.,12.0,0.,12.0,0.,12.0
1979-07-18 03:37:41.450 ,3,1,0.,12.0,0.,12.0,0.,12.0,0.,12.0
1979-07-18 03:37:53.450 ,3,1,0.,12.0,0.,12.0,0.,12.0,0.,12.0
1979-07-18 03:38:05.450 ,0,1,0.,12.0,0.,12.0,0.,12.0,0.,12.0
1979-07-18 03:38:17.450 ,0,1,0.,12.0,0.,12.0,0.,12.0,0.,12.0
1979-07-18 03:38:29.450 ,4,1,0.,12.0,0.,12.0,0.,12.0,0.,12.0
1979-07-18 03:38:41.450 ,4,1,0.,12.0,0.,12.0,0.,12.0,0.,12.0
1979-07-18 03:38:53.450 ,7,1,0.,12.0,0.,12.0,0.,12.0,0.,12.0
1979-07-18 03:39:05.450 ,7,1,0.,12.0,0.,12.0,0.,12.0,0.,12.0
1979-07-18 03:39:17.450 ,3,1,0.,12.0,0.,12.0,0.,12.0,0.,12.0
1979-07-18 03:39:29.450 ,3,1,0.,12.0,0.,12.0,0.,12.0,0.,12.0
1979-07-18 03:39:41.450 ,0,1,0.,12.0,0.,12.0,0.,12.0,0.,12.0
1979-07-18 03:39:53.450 ,0,1,0.,12.0,0.,12.0,0.,12.0,0.,12.0
1979-07-18 03:40:05.450 ,4,1,0.,12.0,0.,12.0,0.,12.0,0.,12.0
1979-07-18 03:40:17.450 ,4,1,0.,12.0,0.,12.0,0.,12.0,0.,12.0
1979-07-18 03:40:29.450 ,7,1,0.,12.0,0.,12.0,0.,12.0,0.,12.0
1979-07-18 03:40:41.450 ,7,1,0.,12.0,0.,12.0,0.,12.0,0.,12.0
1979-07-18 03:40:53.450 ,3,1,0.,12.0,0.,12.0,0.,12.0,0.,12.0
1979-07-18 03:41:05.450 ,3,1,0.,12.0,0.,12.0,0.,12.0,0.,12.0
1979-07-18 03:41:17.450 ,0,1,0.,12.0,0.,12.0,0.,12.0,0.,12.0
1979-07-18 03:41:29.450 ,0,1,0.,12.0,0.,12.0,0.,12.0,0.,12.0
1979-07-18 03:41:41.450 ,0,0,0.,12.0,0.,12.0,0.,12.0,0.,12.0
1979-07-18 03:41:53.450 ,0,0,0.,12.0,0.,12.0,0.,12.0,0.,12.0
1979-07-18 03:42:05.450 ,0,0,0.,12.0,0.,12.0,0.,12.0,0.,12.0
1979-07-18 03:42:17.450 ,0,0,0.,12.0,0.,12.0,0.,12.0,0.,12.0
1979-07-18 03:42:29.450 ,5,0,0.,12.0,0.,12.0,0.,12.0,0.,12.0
1979-07-18 03:42:41.450 ,5,0,0.,12.0,0.,12.0,0.,12.0,0.,12.0
1979-07-18 03:42:53.450 ,5,0,0.,12.0,0.,12.0,0.,12.0,0.,12.0
1979-07-18 03:43:05.450 ,5,0,0.,12.0,0.,12.0,0.,12.0,0.,12.0
1979-07-18 03:43:17.450 ,4,0,0.,12.0,0.,12.0,0.,12.0,0.,12.0
1979-07-18 03:43:29.450 ,4,0,0.,12.0,0.,12.0,0.,12.0,0.,12.0
1979-07-18 03:43:41.450 ,4,0,0.,12.0,0.,12.0,0.,12.0,0.,12.0
1979-07-18 03:43:53.450 ,4,0,0.,12.0,0.,12.0,0.,12.0,0.,12.0
1979-07-18 03:44:05.450 ,3,0,0.,12.0,0.,12.0,0.,12.0,0.,12.0
1979-07-18 03:44:17.450 ,3,0,0.,12.0,0.,12.0,0.,12.0,0.,12.0
1979-07-18 03:44:29.450 ,3,0,0.,12.0,0.,12.0,0.,12.0,0.,12.0
1979-07-18 03:44:41.450 ,3,0,0.,12.0,0.,12.0,0.,12.0,0.,12.0
1979-07-18 03:44:53.450 ,2,0,0.,12.0,0.,12.0,0.,12.0,0.,12.0
1979-07-18 03:45:05.450 ,2,0,0.,12.0,0.,12.0,0.,12.0,0.,12.0
1979-07-18 03:45:17.450 ,2,0,0.,12.0,0.,12.0,0.,12.0,0.,12.0
1979-07-18 03:45:29.450 ,2,0,0.,12.0,0.,12.0,0.,12.0,0.,12.0
1979-07-18 03:45:41.450 ,1,0,0.,12.0,0.,12.0,0.,12.0,0.,12.0
1979-07-18 03:45:53.450 ,1,0,0.,12.0,0.,12.0,0.,12.0,0.,12.0
1979-07-18 03:46:05.450 ,1,0,0.,12.0,0.,12.0,0.,12.0,0.,12.0
1979-07-18 03:46:17.450 ,1,0,0.,12.0,0.,12.0,0.,12.0,0.,12.0
1979-07-18 03:46:29.450 ,0,0,0.,12.0,0.,12.0,0.,12.0,0.,12.0
1979-07-18 03:46:41.450 ,0,0,0.,12.0,0.,12.0,0.,12.0,0.,12.0
1979-07-18 03:46:53.450 ,0,0,0.,12.0,0.,12.0,0.,12.0,0.,12.0
1979-07-18 03:47:05.450 ,0,0,0.,12.0,0.,12.0,0.,12.0,0.,12.0
1979-07-18 03:47:17.450 ,0,0,0.,12.0,0.,12.0,0.,12.0,0.,12.0
1979-07-18 03:47:29.450 ,0,0,0.,12.0,0.,12.0,0.,12.0,0.,12.0
1979-07-18 03:47:41.450 ,0,0,0.,12.0,0.,12.0,0.,12.0,0.,12.0
1979-07-18 03:47:53.450 ,0,0,0.,12.0,0.,12.0,0.,12.0,0.,12.0
1979-07-18 03:48:05.450 ,1,0,0.,12.0,0.,12.0,0.,12.0,0.,12.0
1979-07-18 03:48:17.450 ,1,0,0.,12.0,0.,12.0,0.,12.0,0.,12.0
1979-07-18 03:48:29.450 ,1,0,0.,12.0,0.,12.0,0.,12.0,0.,12.0
1979-07-18 03:48:41.450 ,1,0,0.,12.0,0.,12.0,0.,12.0,0.,12.0
1979-07-18 03:48:53.450 ,2,0,0.,12.0,0.,12.0,0.,12.0,0.,12.0
1979-07-18 03:49:05.450 ,2,0,0.,12.0,0.,12.0,0.,12.0,0.,12.0
1979-07-18 03:49:17.450 ,2,0,0.,12.0,0.,12.0,0.,12.0,0.,12.0
1979-07-18 03:49:29.450 ,2,0,0.,12.0,0.,12.0,0.,12.0,0.,12.0
1979-07-18 03:49:41.450 ,3,0,0.,12.0,0.,12.0,0.,12.0,0.,12.0
1979-07-18 03:49:53.450 ,3,0,0.,12.0,0.,12.0,0.,12.0,0.,12.0
1979-07-18 03:50:05.450 ,3,0,0.,12.0,0.,12.0,0.,12.0,0.,12.0
1979-07-18 03:50:17.450 ,3,0,0.,12.0,0.,12.0,0.,12.0,0.,12.0
1979-07-18 03:50:29.450 ,4,0,0.,12.0,0.,12.0,0.,12.0,0.,12.0
1979-07-18 03:50:41.450 ,4,0,0.,12.0,0.,12.0,0.,12.0,0.,12.0
1979-07-18 03:50:53.450 ,4,0,0.,12.0,0.,12.0,0.,12.0,0.,12.0
1979-07-18 03:51:05.450 ,4,0,0.,12.0,0.,12.0,0.,12.0,0.,12.0
1979-07-18 03:51:17.450 ,5,0,0.,12.0,0.,12.0,0.,12.0,0.,12.0
1979-07-18 03:51:29.450 ,5,0,0.,12.0,0.,12.0,0.,12.0,0.,12.0
1979-07-18 03:51:41.450 ,5,0,0.,12.0,0.,12.0,0.,12.0,0.,12.0
1979-07-18 03:51:53.450 ,5,0,0.,12.0,0.,12.0,0.,12.0,0.,12.0
1979-07-18 03:52:05.450 ,6,0,0.,12.0,0.,12.0,0.,12.0,0.,12.0
1979-07-18 03:52:17.450 ,6,0,0.,12.0,0.,12.0,0.,12.0,0.,12.0
1979-07-18 03:52:29.450 ,6,0,0.,12.0,0.,12.0,0.,12.0,0.,12.0
1979-07-18 03:52:41.450 ,6,0,0.,12.0,0.,12.0,0.,12.0,0.,12.0
1979-07-18 03:52:53.450 ,7,0,0.,12.0,0.,12.0,0.,12.0,0.,12.0
1979-07-18 03:53:05.450 ,7,0,0.,12.0,0.,12.0,0.,12.0,0.,12.0
1979-07-18 03:53:17.450 ,7,0,0.,12.0,0.,12.0,0.,12.0,0.,12.0
1979-07-18 03:53:29.450 ,7,0,0.,12.0,0.,12.0,0.,12.0,0.,12.0
1979-07-18 03:53:41.450 ,7,0,0.,12.0,0.,12.0,0.,12.0,0.,12.0
1979-07-18 03:53:53.450 ,7,0,0.,12.0,0.,12.0,0.,12.0,0.,12.0
1979-07-18 03:54:05.450 ,7,0,0.,12.0,0.,12.0,0.,12.0,0.,12.0
1979-07-18 03:54:17.450 ,7,0,0.,12.0,0.,12.0,0.,12.0,0.,12.0
1979-07-18 03:54:29.450 ,6,0,0.,12.0,0.,12.0,0.,12.0,0.,12.0
1979-07-18 03:54:41.450 ,6,0,1.,12.0,0.,12.0,0.,12.0,0.,12.0
1979-07-18 03:54:53.450 ,6,0,1.,12.0,0.,12.0,0.,12.0,0.,12.0
1979-07-18 03:55:05.450 ,6,0,0.,12.0,0.,12.0,0.,12.0,0.,12.0
1979-07-18 03:55:17.450 ,5,0,0.,12.0,0.,12.0,0.,12.0,0.,12.0
1979-07-18 03:55:29.450 ,5,0,0.,12.0,0.,12.0,0.,12.0,0.,12.0
1979-07-18 03:55:41.450 ,5,0,0.,12.0,0.,12.0,0.,12.0,0.,12.0
1979-07-18 03:55:53.450 ,5,0,0.,12.0,0.,12.0,0.,12.0,0.,12.0
1979-07-18 03:56:05.450 ,4,0,0.,12.0,0.,12.0,0.,12.0,0.,12.0
1979-07-18 03:56:17.450 ,4,0,0.,12.0,0.,12.0,0.,12.0,0.,12.0
1979-07-18 03:56:29.450 ,4,0,0.,12.0,0.,12.0,0.,12.0,0.,12.0
1979-07-18 03:56:41.450 ,4,0,0.,12.0,0.,12.0,0.,12.0,0.,12.0
1979-07-18 03:56:53.450 ,3,0,0.,12.0,0.,12.0,0.,12.0,0.,12.0
1979-07-18 03:57:05.450 ,3,0,0.,12.0,0.,12.0,0.,12.0,0.,12.0
1979-07-18 03:57:17.450 ,3,0,0.,12.0,0.,12.0,0.,12.0,0.,12.0
1979-07-18 03:57:29.450 ,3,0,0.,12.0,0.,12.0,0.,12.0,0.,12.0
1979-07-18 03:57:41.450 ,2,0,0.,12.0,0.,12.0,0.,12.0,0.,12.0
1979-07-18 03:57:53.450 ,2,0,0.,12.0,0.,12.0,0.,12.0,0.,12.0
1979-07-18 03:58:05.450 ,2,0,0.,12.0,0.,12.0,0.,12.0,0.,12.0
1979-07-18 03:58:17.450 ,2,0,0.,12.0,0.,12.0,0.,12.0,0.,12.0
1979-07-18 03:58:29.450 ,1,0,0.,12.0,0.,12.0,0.,12.0,0.,12.0
1979-07-18 03:58:41.450 ,1,0,0.,12.0,0.,12.0,0.,12.0,0.,12.0
1979-07-18 03:58:53.450 ,1,0,0.,12.0,0.,12.0,0.,12.0,0.,12.0
1979-07-18 03:59:05.450 ,1,0,0.,12.0,0.,12.0,0.,12.0,0.,12.0
1979-07-18 03:59:17.450 ,0,0,0.,12.0,0.,12.0,0.,12.0,0.,12.0
1979-07-18 03:59:29.450 ,0,0,0.,12.0,0.,12.0,0.,12.0,0.,12.0
1979-07-18 03:59:41.450 ,0,0,0.,12.0,0.,12.0,0.,12.0,0.,12.0
1979-07-18 03:59:53.450 ,0,0,0.,12.0,0.,12.0,0.,12.0,0.,12.0
1979-07-18 04:00:05.450 ,0,0,0.,12.0,0.,12.0,0.,12.0,0.,12.0
1979-07-18 04:00:17.450 ,0,0,0.,12.0,0.,12.0,0.,12.0,0.,12.0
1979-07-18 04:00:29.450 ,0,0,0.,12.0,0.,12.0,0.,12.0,0.,12.0
1979-07-18 04:00:41.450 ,0,0,1.,12.0,0.,12.0,0.,12.0,0.,12.0
1979-07-18 04:00:53.450 ,1,0,0.,12.0,0.,12.0,0.,12.0,0.,12.0
1979-07-18 04:01:05.450 ,1,0,1.,12.0,0.,12.0,0.,12.0,0.,12.0
1979-07-18 04:01:17.450 ,1,0,0.,12.0,0.,12.0,0.,12.0,0.,12.0
1979-07-18 04:01:29.450 ,1,0,0.,12.0,0.,12.0,0.,12.0,0.,12.0
1979-07-18 04:01:41.450 ,2,0,0.,12.0,0.,12.0,0.,12.0,0.,12.0
1979-07-18 04:01:53.450 ,2,0,0.,12.0,0.,12.0,0.,12.0,0.,12.0
1979-07-18 04:02:05.450 ,2,0,0.,12.0,0.,12.0,0.,12.0,0.,12.0
1979-07-18 04:02:17.450 ,2,0,0.,12.0,0.,12.0,0.,12.0,0.,12.0
1979-07-18 04:02:29.450 ,3,0,0.,12.0,0.,12.0,0.,12.0,0.,12.0
1979-07-18 04:02:41.450 ,3,0,0.,12.0,0.,12.0,0.,12.0,0.,12.0
1979-07-18 04:02:53.450 ,3,0,0.,12.0,0.,12.0,0.,12.0,0.,12.0
1979-07-18 04:03:05.450 ,3,0,0.,12.0,0.,12.0,0.,12.0,0.,12.0
1979-07-18 04:03:17.450 ,4,0,0.,12.0,0.,12.0,0.,12.0,0.,12.0
1979-07-18 04:03:29.450 ,4,0,0.,12.0,0.,12.0,0.,12.0,0.,12.0
1979-07-18 04:03:41.450 ,4,0,0.,12.0,0.,12.0,0.,12.0,0.,12.0
1979-07-18 04:03:53.450 ,4,0,0.,12.0,0.,12.0,0.,12.0,0.,12.0
1979-07-18 04:04:05.450 ,5,0,0.,12.0,0.,12.0,0.,12.0,0.,12.0
1979-07-18 04:04:17.450 ,5,0,0.,12.0,0.,12.0,0.,12.0,0.,12.0
1979-07-18 04:04:29.450 ,5,0,0.,12.0,0.,12.0,0.,12.0,0.,12.0
1979-07-18 04:04:41.450 ,5,0,0.,12.0,0.,12.0,0.,12.0,0.,12.0
1979-07-18 04:04:53.450 ,6,0,0.,12.0,0.,12.0,0.,12.0,0.,12.0
1979-07-18 04:05:05.450 ,6,0,0.,12.0,0.,12.0,0.,12.0,0.,12.0
1979-07-18 04:05:17.450 ,6,0,0.,12.0,0.,12.0,0.,12.0,0.,12.0
1979-07-18 04:05:29.450 ,6,0,0.,12.0,0.,12.0,0.,12.0,0.,12.0
1979-07-18 04:05:41.450 ,7,0,0.,12.0,0.,12.0,0.,12.0,0.,12.0
1979-07-18 04:05:53.450 ,7,0,0.,12.0,0.,12.0,0.,12.0,0.,12.0
1979-07-18 04:06:05.450 ,7,0,0.,12.0,0.,12.0,0.,12.0,0.,12.0
1979-07-18 04:06:17.450 ,7,0,0.,12.0,0.,12.0,0.,12.0,0.,12.0
1979-07-18 04:06:29.450 ,7,0,0.,12.0,0.,12.0,0.,12.0,0.,12.0
1979-07-18 04:06:41.450 ,7,0,0.,12.0,0.,12.0,0.,12.0,0.,12.0
1979-07-18 04:06:53.450 ,7,0,0.,12.0,0.,12.0,0.,12.0,0.,12.0
1979-07-18 04:07:05.450 ,7,0,0.,12.0,0.,12.0,0.,12.0,0.,12.0
1979-07-18 04:07:17.450 ,6,0,0.,12.0,0.,12.0,0.,12.0,0.,12.0
1979-07-18 04:07:29.450 ,6,0,0.,12.0,0.,12.0,0.,12.0,0.,12.0
1979-07-18 04:07:41.450 ,6,0,0.,12.0,0.,12.0,0.,12.0,0.,12.0
1979-07-18 04:07:53.450 ,6,0,0.,12.0,0.,12.0,0.,12.0,0.,12.0
1979-07-18 04:08:05.450 ,5,0,0.,12.0,0.,12.0,0.,12.0,0.,12.0
1979-07-18 04:08:17.450 ,5,0,0.,12.0,0.,12.0,0.,12.0,0.,12.0
1979-07-18 04:08:29.450 ,5,0,0.,12.0,0.,12.0,0.,12.0,0.,12.0
1979-07-18 04:08:41.450 ,5,0,0.,12.0,0.,12.0,0.,12.0,0.,12.0
1979-07-18 04:08:53.450 ,4,0,0.,12.0,0.,12.0,0.,12.0,0.,12.0
1979-07-18 04:09:05.450 ,4,0,0.,12.0,0.,12.0,0.,12.0,0.,12.0
1979-07-18 04:09:17.450 ,4,0,0.,12.0,0.,12.0,0.,12.0,0.,12.0
1979-07-18 04:09:29.450 ,4,0,0.,12.0,0.,12.0,0.,12.0,0.,12.0
1979-07-18 04:09:41.450 ,3,0,0.,12.0,0.,12.0,0.,12.0,0.,12.0
1979-07-18 04:09:53.450 ,3,0,0.,12.0,0.,12.0,0.,12.0,0.,12.0
1979-07-18 04:10:05.450 ,3,0,0.,12.0,0.,12.0,0.,12.0,0.,12.0
1979-07-18 04:10:17.450 ,3,0,0.,12.0,0.,12.0,0.,12.0,0.,12.0
1979-07-18 04:10:29.450 ,2,0,0.,12.0,0.,12.0,0.,12.0,0.,12.0
1979-07-18 04:10:41.450 ,2,0,0.,12.0,0.,12.0,0.,12.0,0.,12.0
1979-07-18 04:10:53.450 ,2,0,0.,12.0,0.,12.0,0.,12.0,0.,12.0
1979-07-18 04:11:05.450 ,2,0,0.,12.0,0.,12.0,0.,12.0,0.,12.0
1979-07-18 04:11:17.450 ,1,0,0.,12.0,0.,12.0,0.,12.0,0.,12.0
1979-07-18 04:11:29.450 ,1,0,0.,12.0,0.,12.0,0.,12.0,0.,12.0
1979-07-18 04:11:41.450 ,1,0,1.,12.0,0.,12.0,0.,12.0,0.,12.0
1979-07-18 04:11:53.450 ,1,0,0.,12.0,0.,12.0,0.,12.0,0.,12.0
1979-07-18 04:12:05.450 ,0,0,0.,12.0,0.,12.0,0.,12.0,0.,12.0
1979-07-18 04:12:17.450 ,0,0,0.,12.0,0.,12.0,0.,12.0,0.,12.0
1979-07-18 04:12:29.450 ,0,0,0.,12.0,0.,12.0,0.,12.0,0.,12.0
1979-07-18 04:12:41.450 ,0,0,0.,12.0,0.,12.0,0.,12.0,0.,12.0
1979-07-18 04:12:53.450 ,0,0,0.,12.0,0.,12.0,0.,12.0,0.,12.0
1979-07-18 04:13:05.450 ,0,0,0.,12.0,0.,12.0,0.,12.0,0.,12.0
1979-07-18 04:13:17.450 ,0,0,0.,12.0,0.,12.0,0.,12.0,0.,12.0
1979-07-18 04:13:29.450 ,0,0,0.,12.0,0.,12.0,0.,12.0,0.,12.0
1979-07-18 04:13:41.450 ,1,0,0.,12.0,0.,12.0,0.,12.0,0.,12.0
1979-07-18 04:13:53.450 ,1,0,0.,12.0,0.,12.0,0.,12.0,0.,12.0
1979-07-18 04:14:05.450 ,1,0,0.,12.0,0.,12.0,0.,12.0,0.,12.0
1979-07-18 04:14:17.450 ,1,0,0.,12.0,0.,12.0,0.,12.0,0.,12.0
1979-07-18 04:14:29.450 ,2,0,1.,12.0,0.,12.0,0.,12.0,0.,12.0
1979-07-18 04:14:41.450 ,2,0,0.,12.0,0.,12.0,0.,12.0,0.,12.0
1979-07-18 04:14:53.450 ,2,0,0.,12.0,0.,12.0,0.,12.0,0.,12.0
1979-07-18 04:15:05.450 ,2,0,0.,12.0,0.,12.0,0.,12.0,0.,12.0
1979-07-18 04:15:17.450 ,3,0,0.,12.0,0.,12.0,0.,12.0,0.,12.0
1979-07-18 04:15:29.450 ,3,0,0.,12.0,0.,12.0,0.,12.0,0.,12.0
1979-07-18 04:15:41.450 ,3,0,0.,12.0,0.,12.0,0.,12.0,0.,12.0
1979-07-18 04:15:53.450 ,3,0,0.,12.0,0.,12.0,0.,12.0,0.,12.0
1979-07-18 04:16:05.450 ,4,0,0.,12.0,0.,12.0,0.,12.0,0.,12.0
1979-07-18 04:16:17.450 ,4,0,0.,12.0,0.,12.0,0.,12.0,0.,12.0
1979-07-18 04:16:29.450 ,4,0,0.,12.0,0.,12.0,0.,12.0,0.,12.0
1979-07-18 04:16:41.450 ,4,0,0.,12.0,0.,12.0,0.,12.0,0.,12.0
1979-07-18 04:16:53.450 ,5,0,0.,12.0,0.,12.0,0.,12.0,0.,12.0
1979-07-18 04:17:05.450 ,5,0,0.,12.0,0.,12.0,0.,12.0,0.,12.0